Wind_Speed
19 15 19 22 21 21 8 13 14 22 11 23 7 11 17 15 15 16 15 16 17 18 19 23 23 23 24 23 24 21 18 16 16 15 14 12 13 11 9 8 7 5 4 4
21 22 23 21 21 18 10 17 10 5 18 8 10 7 18 16 14 17 17 17 18 19 20 22 24 24 25 25 25 24 20 17 18 15 13 12 12 11 11 10 7 5 6 6
27 25 24 23 22 17 14 17 12 7 8 10 11 7 9 20 14 14 16 17 18 20 21 21 24 26 26 27 28 26 23 20 19 16 13 7 8 8 8 9 8 7 6 6
29 28 25 24 22 21 17 18 17 7 5 10 12 10 15 16 16 16 17 18 19 20 20 21 24 27 28 28 28 27 24 22 20 17 17 15 13 13 13 11 10 8 6 5
30 30 30 25 26 21 20 17 16 13 12 14 13 9 12 15 14 13 17 18 19 20 22 23 25 30 30 30 31 29 26 24 22 21 15 18 16 13 11 11 10 5 7 5
29 26 29 29 24 21 22 17 13 15 14 13 17 10 10 10 13 15 18 16 18 20 21 22 30 31 31 31 32 32 29 26 24 23 19 17 17 11 14 11 11 10 9 8
27 32 29 26 29 20 27 20 12 12 13 15 17 13 13 11 4 3 17 17 17 17 20 21 24 28 32 33 33 33 31 29 27 25 24 20 18 15 11 13 12 10 9 7
23 23 32 27 32 26 25 23 16 20 14 16 19 16 14 7 9 8 6 11 19 21 19 22 25 31 34 35 34 33 33 30 29 28 25 24 21 19 15 16 13 12 9 8
22 27 24 30 26 25 27 23 23 22 22 15 15 21 19 7 9 9 6 8 7 4 13 22 25 33 35 36 36 35 31 31 30 29 26 24 24 23 22 18 18 13 10 7
20 19 29 35 22 24 27 19 21 17 23 22 18 12 9 15 17 16 11 5 5 6 10 17 21 31 35 36 36 35 34 32 32 30 28 27 25 25 21 19 18 17 14 11
20 17 19 23 29 27 21 25 20 20 21 19 17 14 13 8 5 2 11 8 9 5 4 7 17 27 33 34 35 36 35 33 32 31 30 27 27 26 25 22 21 20 17 16
26 8 16 26 18 23 25 28 27 13 22 17 18 14 11 15 13 12 3 4 8 10 8 4 13 23 30 33 34 36 35 34 33 31 29 29 27 26 26 26 23 22 21 19
14 15 15 21 20 20 24 22 24 24 19 23 17 18 10 9 7 9 5 5 8 12 9 2 10 16 25 30 31 34 35 35 33 31 32 30 30 28 28 28 27 24 23 23
4 14 21 14 18 22 21 23 23 25 19 19 19 16 14 11 13 14 4 8 3 8 9 7 8 13 20 26 27 30 31 35 33 32 33 32 32 31 30 28 28 27 26 25
10 16 13 25 4 10 25 22 24 22 22 20 18 21 16 9 2 8 8 5 8 5 10 12 6 11 18 22 25 26 30 33 34 33 33 34 33 32 31 30 28 28 28 27
6 6 4 17 8 9 11 13 26 21 18 17 20 19 10 4 6 4 7 9 11 10 12 13 13 9 15 20 23 27 29 30 33 32 34 34 33 33 33 32 30 29 28 28
6 6 9 14 13 11 12 15 15 10 11 13 17 11 8 7 9 9 7 6 9 11 12 13 13 14 13 21 24 27 28 31 32 33 34 34 34 34 34 33 32 30 31 28
5 7 9 12 11 13 6 3 20 14 11 15 13 15 15 13 13 12 14 10 11 13 13 13 14 15 19 16 23 26 30 31 33 34 34 37 37 37 36 35 34 34 32 32
9 8 9 11 10 10 13 3 0 2 10 12 11 12 12 14 14 7 13 12 12 12 14 16 22 22 21 20 17 24 29 29 34 35 37 36 38 37 37 37 36 35 33 32
9 7 9 11 16 15 13 7 3 3 5 11 12 13 14 15 7 9 18 15 14 16 17 19 23 24 21 20 20 20 27 31 32 36 35 36 36 36 35 36 37 36 35 33
9 8 12 12 10 5 9 6 8 11 5 7 8 10 13 8 7 15 16 14 16 18 18 21 21 21 21 20 19 22 23 30 31 27 30 31 34 35 35 34 33 32 33 32
10 7 8 11 13 10 14 3 4 5 5 5 5 9 13 12 12 13 13 14 15 18 21 23 24 22 28 20 19 17 21 23 24 28 27 30 31 32 32 32 31 30 29 29
4 8 6 7 6 10 14 13 10 5 4 6 8 9 11 12 13 14 13 11 13 18 20 24 24 22 24 28 13 12 15 18 22 22 24 26 27 28 30 28 30 29 30 30
5 5 6 6 9 8 6 13 8 6 5 5 7 11 12 10 13 14 14 10 10 16 18 18 20 20 22 25 23 23 11 13 18 20 21 22 24 25 27 30 29 30 30 29
5 4 5 9 7 1 5 9 8 9 6 7 7 10 14 10 9 11 11 13 14 14 17 17 18 19 22 23 21 20 19 19 11 16 19 20 23 25 25 28 29 29 30 29
4 5 7 2 9 8 4 4 9 10 11 7 9 10 13 9 8 9 9 13 14 15 16 17 17 18 21 22 23 24 20 17 14 11 16 20 22 23 26 26 27 31 27 26
Wind_Direction
204 222 227 231 225 252 306 277 157 218 345 272 249 80 160 171 179 169 174 175 183 185 181 178 185 179 176 177 177 181 185 167 173 170 183 166 168 157 155 126 113 119 113 98
219 223 226 233 244 235 244 268 192 174 167 284 221 212 152 168 196 173 180 178 184 185 182 181 188 185 182 182 184 183 186 180 182 183 199 180 169 166 156 133 139 129 119 122
223 217 227 233 236 241 226 246 249 261 164 231 280 239 220 165 184 203 187 180 186 188 185 185 187 189 189 184 188 186 189 186 193 190 200 196 159 142 149 143 157 147 140 113
228 232 208 230 230 229 230 228 259 282 219 256 192 255 182 172 180 193 190 188 186 188 191 185 188 192 192 188 187 186 191 190 194 195 192 190 183 182 182 172 136 146 151 137
227 224 231 212 229 226 231 244 223 245 249 263 214 262 172 185 188 193 202 194 191 189 191 189 191 192 195 189 188 188 188 192 196 198 208 189 217 193 170 169 144 155 156 165
239 228 227 231 221 219 235 237 250 251 243 244 247 245 233 188 193 194 184 193 197 193 195 196 192 192 199 194 189 189 184 193 197 195 207 202 211 225 180 176 171 178 175 176
224 235 228 227 235 211 236 221 218 223 225 239 238 223 251 78 105 107 167 183 193 201 196 194 192 194 197 199 195 189 184 191 195 197 200 203 213 223 199 180 196 188 181 186
218 219 228 214 231 211 224 227 225 221 225 229 224 245 224 170 169 191 228 191 186 195 203 198 197 194 196 199 198 195 186 190 198 200 202 201 209 206 210 200 200 201 201 179
214 228 207 232 219 223 220 216 240 247 255 256 223 203 231 163 239 218 153 231 235 300 222 196 195 193 197 198 198 199 191 192 200 204 201 202 205 214 206 209 218 205 210 177
251 248 221 210 212 227 241 212 219 239 249 254 246 235 205 191 216 220 194 210 332 332 291 196 195 192 195 198 199 199 200 195 201 203 203 203 203 209 218 216 201 214 200 215
253 254 228 203 206 208 216 238 226 227 231 246 245 239 217 182 151 160 126 200 340 3 325 237 192 192 192 198 199 199 201 196 202 203 201 202 203 204 211 216 213 213 210 202
231 243 244 193 214 219 235 218 231 227 232 240 253 250 227 201 176 213 105 112 48 338 345 230 199 192 190 199 197 199 200 200 198 202 201 198 202 205 207 215 214 214 214 211
215 226 234 195 202 197 234 217 225 230 234 229 232 235 243 125 134 120 96 183 47 343 341 261 207 201 197 200 199 202 198 201 198 199 200 202 203 204 209 211 217 218 218 218
319 233 243 225 205 206 215 230 218 225 227 235 238 239 230 219 186 138 147 53 333 304 0 299 203 212 208 199 203 200 199 203 201 199 201 204 204 205 209 212 212 217 218 220
241 250 235 240 312 291 199 219 230 225 237 234 232 236 240 248 277 27 45 25 322 338 18 333 251 209 216 211 201 205 207 203 205 199 203 206 206 205 209 209 213 214 216 219
233 235 234 256 199 247 247 223 221 227 230 249 261 265 242 123 76 3 33 357 323 341 22 334 320 238 215 218 216 207 206 207 206 204 204 207 206 208 208 210 210 214 216 217
252 261 209 227 199 215 227 226 243 239 251 234 240 267 344 17 53 28 350 26 1 347 345 320 319 306 246 220 218 219 210 209 207 211 205 207 209 209 210 210 211 211 215 218
228 248 258 239 165 218 220 203 209 212 49 16 31 25 19 360 344 314 48 22 352 338 334 321 312 305 296 256 223 216 220 210 214 211 213 208 207 209 210 211 213 213 213 215
246 244 232 257 232 174 123 74 224 295 80 28 21 18 5 343 296 108 23 7 351 339 324 319 307 303 300 279 251 212 214 219 213 217 214 213 210 210 209 210 212 215 215 217
242 240 271 209 253 228 75 71 39 289 132 25 13 8 4 347 310 48 349 341 350 346 329 321 309 301 292 282 267 230 213 217 220 216 217 214 213 214 215 214 213 213 215 220
209 224 220 230 227 156 22 14 291 223 77 28 3 341 339 346 325 313 327 336 345 343 340 330 320 306 297 284 258 250 224 220 224 224 219 219 219 218 216 218 219 216 215 221
201 200 212 241 242 217 2 88 348 60 41 18 358 350 340 339 333 335 335 345 344 350 346 347 331 331 322 289 267 247 235 228 223 224 221 218 218 219 218 218 217 220 221 221
263 20 353 358 59 88 76 83 93 72 54 1 344 2 326 348 342 338 339 355 350 355 351 352 345 336 333 348 310 266 248 229 225 225 223 217 216 215 222 216 216 216 220 225
241 334 283 312 109 68 56 107 90 93 15 29 351 330 328 357 351 349 335 358 349 354 353 4 355 347 343 350 353 2 322 231 225 225 222 216 214 214 213 221 217 222 222 222
75 282 294 270 246 19 118 53 20 346 357 339 341 332 320 353 8 360 345 353 347 348 350 6 8 355 353 350 351 352 348 350 241 218 224 219 218 214 216 217 223 218 226 225
293 279 263 5 4 332 319 15 328 317 310 323 328 336 323 342 2 33 357 350 344 344 352 354 3 1 359 357 358 356 350 342 345 325 222 222 219 216 214 218 223 238 237 230
Height
737 749 748 733 725 715 724 733 750 776 764 741 730 757 731 730 731 741 748 753 759 762 767 775 781 787 794 800 805 811 816 818 821 824 824 825 826 827 828 831 835 837 837 837
739 748 727 719 716 720 726 732 730 723 727 728 732 726 720 727 729 730 738 745 752 757 762 770 778 784 790 797 803 808 814 818 820 822 822 822 823 827 829 831 836 837 838 838
737 725 720 722 724 730 728 735 729 732 726 726 728 738 727 720 726 723 726 733 742 749 755 764 773 779 786 793 800 805 811 815 818 820 822 823 824 826 830 832 835 837 839 839
723 712 718 726 729 723 740 719 721 733 740 750 722 753 730 716 725 725 724 728 734 741 748 758 768 775 781 788 796 802 808 813 817 818 821 823 824 825 826 829 831 836 838 839
723 718 719 726 724 716 733 712 722 728 737 737 738 745 725 712 728 724 720 720 724 733 741 749 759 768 775 781 789 796 804 810 814 817 818 822 823 823 825 827 832 834 837 839
712 698 705 709 706 712 712 723 735 727 734 760 735 737 727 715 714 710 711 715 720 725 733 742 753 763 771 776 782 789 798 805 810 814 816 820 821 821 824 826 831 833 834 837
719 711 697 700 714 712 718 732 766 771 765 765 720 734 722 702 702 699 704 710 713 718 725 735 744 755 765 770 777 783 791 799 805 810 814 818 820 822 823 827 828 828 830 833
728 735 705 693 704 719 721 723 746 778 763 747 720 741 722 694 692 694 697 696 700 707 713 722 733 746 756 764 771 777 785 794 800 805 810 814 819 821 823 825 825 827 827 830
719 718 695 693 694 704 716 727 711 734 721 731 714 709 698 695 700 699 700 701 700 699 698 708 722 735 748 757 764 771 779 788 795 800 805 810 815 818 820 821 824 825 826 828
703 719 691 693 696 698 706 700 741 731 762 761 725 723 719 708 708 703 702 702 701 701 700 697 710 725 740 750 758 766 773 782 789 794 800 804 809 814 816 819 821 822 824 827
710 708 693 686 702 712 717 717 712 715 726 746 748 725 686 699 700 702 701 707 707 702 702 700 705 718 732 743 750 758 766 775 783 788 793 798 803 808 813 815 818 820 822 824
707 701 708 696 685 690 696 707 708 729 745 721 722 720 672 677 685 700 702 702 702 704 702 705 707 715 725 735 743 750 759 767 775 782 787 792 798 803 807 811 814 817 819 821
703 713 719 705 701 696 707 697 701 705 710 726 735 724 677 684 690 698 706 707 705 714 706 706 710 714 720 730 737 744 752 760 768 775 781 786 791 796 800 805 809 812 815 817
722 711 712 711 706 697 714 702 699 705 720 723 716 711 694 690 693 698 705 709 715 718 711 707 711 716 720 726 733 739 746 753 761 769 775 780 784 789 793 798 803 806 809 812
717 722 705 696 696 694 698 708 704 708 706 717 711 710 699 694 696 700 707 713 717 716 711 714 710 715 720 723 729 736 742 748 753 760 767 772 777 782 787 791 796 800 803 805
713 725 714 715 707 707 708 700 703 703 705 710 709 708 684 688 695 708 712 716 720 716 712 720 715 712 718 722 726 731 736 741 747 752 758 765 770 775 778 783 787 793 796 799
726 721 731 730 709 714 728 712 709 706 703 709 724 711 697 700 709 717 721 723 731 730 726 729 723 717 712 717 722 725 731 738 741 745 750 756 763 767 771 775 780 784 788 792
735 737 724 721 716 750 709 690 698 709 725 727 725 735 734 735 731 728 731 737 740 738 737 734 728 721 717 711 714 721 725 729 734 737 742 747 751 757 762 767 771 775 779 782
729 732 733 734 724 715 718 718 713 718 755 751 753 750 747 743 737 733 743 741 741 742 740 737 731 722 715 711 708 713 719 721 726 728 732 738 743 747 752 756 760 765 770 773
733 738 739 732 737 735 740 724 721 721 763 765 766 763 758 751 740 734 747 740 744 744 743 738 731 721 713 708 706 705 709 714 714 719 725 732 736 741 745 748 751 755 760 764
746 745 745 737 736 727 738 730 727 747 774 772 777 775 767 765 766 756 749 742 746 744 741 736 728 717 708 703 702 700 702 703 710 717 722 726 730 733 737 742 747 749 752 755
745 750 742 739 738 745 746 737 749 777 774 776 773 773 771 765 760 756 752 748 745 743 738 731 722 709 704 699 697 695 696 701 706 711 713 717 722 726 730 735 738 743 747 748
753 744 754 744 755 747 753 764 772 774 779 776 772 773 770 765 762 757 752 751 748 744 739 730 722 715 715 704 694 694 696 698 701 704 707 711 715 720 724 727 731 735 738 740
750 748 752 751 746 752 753 761 765 772 772 773 775 772 767 765 763 761 756 751 751 748 744 739 735 729 721 712 706 701 696 696 698 700 703 706 709 713 717 721 723 727 727 729
761 764 756 755 754 754 757 767 765 767 767 769 770 770 766 763 764 763 759 756 754 751 748 742 737 732 726 720 713 707 703 698 695 697 700 702 704 707 710 713 713 715 718 718
756 760 762 763 765 766 764 770 770 770 767 766 769 769 768 762 762 761 763 761 757 753 750 746 740 735 729 724 717 711 706 702 698 696 697 696 698 699 703 704 708 708 708 710